Location: La Bilong�re
(48.1297°N, 1.4584°W)
Time: 03:32:53
(UTC+00:00)

ARGOS - Pass Details

Date: 03 March 2021
Orbit: 819 x 835 km, 98.4° (Epoch: 16 April)

Event Time Altitude Azimuth Distance (km) Brightness Sun altitude
Rises 19:30:23 0° 181° (S) 3,366 6.2 -16.9°
Reaches altitude 10° 19:32:48 10° 187° (S) 2,439 5.6 -17.3°
Maximum altitude 19:38:02 48° 261° (W) 1,080 4.2 -18.2°
Drops below altitude 10° 19:43:18 10° 336° (NNW) 2,459 6.1 -19.1°
Sets 19:45:46 0° 342° (NNW) 3,397 6.8 -19.5°
